Fargo, ND

2:28 AM CDT on March 23, 2017 (GMT -0500)
Hector International

Weather History for KFAR - July, 2014

Change the Weather History Date:

Monday, July 7, 2014

  Actual Average Record
Temperature  
Mean Temperature 72 °F 70 °F  
Max Temperature 82 °F 82 °F 103 °F (1936)
Min Temperature 61 °F 59 °F 41 °F (1908)
Degree Days  
Heating Degree Days 0 1  
Month to date heating degree days 10 7  
Since 1 June heating degree days 40 80  
Since 1 July heating degree days 10 7  
Cooling Degree Days 7 6  
Month to date cooling degree days 42 42  
Year to date cooling degree days 223 180  
Since 1 June cooling degree days 144 149  
Growing Degree Days 24 (Base 50)    
Moisture  
Dew Point 59 °F    
Average Humidity 61    
Maximum Humidity 81    
Minimum Humidity 40    
Precipitation  
Precipitation T in 0.11 in 2.18 in (1959)
Month to date precipitation 0.37 0.78  
Year to date precipitation 13.08 11.49  
Snow  
Snow 0.00 in 0.00 in 0.00 in ()
Month to date snowfall 0.0 0.0  
Since 1 June snowfall 0.0 0.0  
Since 1 July snowfall 0.0 0.0  
Snow Depth 0.00 in    
Sea Level Pressure  
Sea Level Pressure 29.72 in    
Wind  
Wind Speed 13 mph (WNW)    
Max Wind Speed 26 mph    
Max Gust Speed 33 mph    
Visibility 10 miles    
Events      
T = Trace of Precipitation, MM = Missing Value Source: NWS Daily Summary

Daily Weather History Graph

Daily Weather History Graph

Search for Another Location

Airport or City:

Trip Planner

Search our weather history database for the weather conditions in past years. The results will help you decide how hot, cold, wet, or windy it might be!

Date:

Astronomy

Jul. 07, 2014 Rise Set
Actual Time 5:40 AM CDT 9:23 PM CDT
Civil Twilight 5:01 AM CDT 10:02 PM CDT
Nautical Twilight 4:09 AM CDT 10:54 PM CDT
Astronomical Twilight 2:55 AM CDT 12:07 AM CDT
Moon 4:17 PM CDT (7/7) 1:47 AM CDT (7/7)
Length of Visible Light 17h 00m
Length of Day
15h 42m
Waxing Gibbous, 72% of the Moon is Illuminated
Jul 7
Waxing Gibbous
Jul 12
Full
Jul 18
Last Quarter
Jul 26
New
Aug 3
First Quarter

Hourly Weather History & Observations

Time (CDT) Temp. Heat Index Dew Point Humidity Pressure Visibility Wind Dir Wind Speed Gust Speed Precip Events Conditions
12:53 AM 69.1 °F - 60.1 °F 73% 29.75 in 10.0 mi SW 5.8 mph - N/A   Clear
1:53 AM 69.1 °F - 59.0 °F 70% 29.74 in 10.0 mi WSW 6.9 mph - N/A   Clear
2:53 AM 68.0 °F - 60.1 °F 76% 29.75 in 10.0 mi WSW 5.8 mph - N/A   Clear
3:53 AM 68.0 °F - 62.1 °F 81% 29.71 in 10.0 mi WSW 6.9 mph - 0.00 in   Partly Cloudy
4:53 AM 69.1 °F - 62.1 °F 78% 29.72 in 10.0 mi WNW 10.4 mph - N/A   Partly Cloudy
5:53 AM 66.9 °F - 61.0 °F 81% 29.73 in 10.0 mi West 10.4 mph - N/A   Scattered Clouds
6:53 AM 66.9 °F - 61.0 °F 81% 29.73 in 10.0 mi West 9.2 mph - N/A   Clear
7:53 AM 71.1 °F - 63.0 °F 75% 29.73 in 10.0 mi WNW 10.4 mph - N/A   Partly Cloudy
8:53 AM 72.0 °F - 64.0 °F 76% 29.73 in 10.0 mi NW 8.1 mph - N/A   Overcast
9:53 AM 77.0 °F - 62.1 °F 60% 29.72 in 10.0 mi NW 11.5 mph - N/A   Clear
10:53 AM 79.0 °F - 61.0 °F 54% 29.72 in 10.0 mi WNW 13.8 mph - N/A   Clear
11:53 AM 80.1 °F 80.7 °F 59.0 °F 48% 29.72 in 10.0 mi WNW 11.5 mph - N/A   Partly Cloudy
12:53 PM 82.0 °F 81.6 °F 55.9 °F 41% 29.70 in 10.0 mi WNW 16.1 mph - N/A   Clear
1:53 PM 80.1 °F 80.4 °F 57.0 °F 45% 29.71 in 10.0 mi WNW 18.4 mph 25.3 mph N/A   Scattered Clouds
2:53 PM 78.1 °F - 57.9 °F 50% 29.71 in 10.0 mi NW 16.1 mph - N/A   Partly Cloudy
3:53 PM 77.0 °F - 57.0 °F 50% 29.71 in 10.0 mi WNW 18.4 mph - N/A   Partly Cloudy
4:53 PM 78.1 °F - 57.9 °F 50% 29.70 in 10.0 mi WNW 21.9 mph - N/A   Clear
5:53 PM 75.9 °F - 55.9 °F 50% 29.69 in 10.0 mi WNW 16.1 mph 24.2 mph 0.00 in   Partly Cloudy
6:53 PM 73.9 °F - 57.9 °F 57% 29.70 in 10.0 mi WNW 19.6 mph - N/A   Partly Cloudy
7:53 PM 73.9 °F - 55.9 °F 53% 29.71 in 10.0 mi WNW 25.3 mph 29.9 mph N/A   Clear
8:53 PM 71.1 °F - 55.9 °F 59% 29.71 in 10.0 mi WNW 11.5 mph - 0.00 in   Clear
9:53 PM 69.1 °F - 57.0 °F 65% 29.72 in 10.0 mi WNW 11.5 mph - N/A   Scattered Clouds
10:53 PM 66.9 °F - 53.1 °F 61% 29.74 in 10.0 mi NW 12.7 mph - N/A   Clear
11:53 PM 62.1 °F - 55.0 °F 78% 29.75 in 10.0 mi WNW 13.8 mph - N/A   Clear